Mean motion: 12.42998674 rev/day
Decay rate: 1.0e-07 rev/day^2
Epoch rev: 2505
Checksum: 301
/EX
1
0
SB KEPS @ AMSAT $ORB08339.N
2Line Orbital Elements 08339.AMSAT
HR AMSAT ORBITAL ELEMENTS FOR AMATEUR SATELLITES IN NASA FORMAT
FROM WA5QGD FORT WORTH,TX December 4, 2008
Send Subscribe/unsubscribe to KEPS at
http://www.amsat.org/mailman/listinfo/keps
BID: ORB08339.N
DECODE 2-LINE ELSETS WITH THE FOLLOWING KEY:
1 AAAAAU 00 0 0 BBBBB.BBBBBBBB .CCCCCCCC 00000-0 00000-0 0 DDDZ
2 AAAAA EEE.EEEE FFF.FFFF GGGGGGG HHH.HHHH III.IIII JJ.JJJJJJJJKKKKKZ
KEY: A-CATALOGNUM B-EPOCHTIME C-DECAY D-ELSETNUM E-INCLINATION F-RAAN
G-ECCENTRICITY H-ARGPERIGEE I-MNANOM J-MNMOTION K-ORBITNUM Z-CHECKSUM
TO ALL RADIO AMATEURS BT
PO-63
1 29712U 07001D 08339.70288781 .00000583 00000-0 83153-4 0 286
2 29712 097.8559 034.5146 0013987 183.6012 176.5087 14.80359985102692
VO-52
1 28650U 05017B 08338.39264154 -.00000213 00000-0 -20346-4 0 954
2 28650 097.7703 040.1741 0026373 310.6228 049.2703 14.81526321193658
AO-40
1 26609U 00072B 08338.30552782 -.00000116 00000-0 10000-3 0 1621
2 26609 008.2080 045.5674 7938374 151.2607 297.1135 01.25587123 37166
SO-33
1 25509U 98061B 08339.67248512 .00000117 00000-0 12937-4 0 3385
2 25509 031.4304 072.3616 0354196 077.8019 286.2038 14.28233192528002
FO-29
1 24278U 96046B 08339.73080535 .00000035 00000-0 69467-4 0 9176
2 24278 098.5770 233.6109 0351351 133.9867 229.0816 13.52940622607454
RS-15
1 23439U 94085A 08337.88273289 -.00000039 00000-0 10000-3 0 1635
2 23439 064.8168 222.2566 0145726 090.0177 271.7445 11.27552875573985
UO-11
1 14781U 84021B 08339.05669844 -.00000130 00000-0 -10026-4 0 8270
2 14781 098.1342 015.4499 0008077 245.7679 114.2673 14.79679764328977
AO-10
1 14129U 83058B 08334.24004812 -.00000069 00000-0 10000-3 0 5952
2 14129 026.0359 183.6184 5958472 177.3883 188.3617 02.05869792191500
AO-07
1 07530U 74089B 08339.12169863 -.00000027 00000-0 10000-3 0 3439
2 07530 101.4483 004.8182 0011693 289.9596 070.0223 12.53574773558274
CO-65
1 32785U 08021C 08339.87355323 .00000058 00000-0 14264-4 0 2284
2 32785 097.9729 039.1775 0014013 305.5015 054.4873 14.81422166 32674
CP4
1 31132U 07012Q 08339.82939631 .00000059 00000-0 23212-4 0 4751
2 31132 098.0228 038.8728 0086472 157.7078 202.7918 14.55163903 86762
CP3
1 31128U 07012M 08339.68692001 -.00000046 00000-0 00000 0 0 4984
2 31128 098.0192 035.7250 0103263 166.9288 193.4643 14.51998430 86674
CO-56
1 28941U 06005C 08339.83110678 .00042156 29809-5 24543-3 0 6070
2 28941 098.1232 115.2164 0135304 137.0983 224.0920 15.66729395156664
AO-51
1 28375U 04025K 08339.49196482 .00000014 00000-0 16913-4 0 2590
2 28375 098.0594 354.3923 0084808 356.7577 003.3054 14.40626600232921
CO-57
1 27848U 03031J 08338.56659262 .00000034 00000-0 36432-4 0 4061
2 27848 098.7160 343.5578 0010005 356.0741 004.0368 14.20416368281455
CO-55
1 27844U 03031E 08339.03864183 .00000069 00000-0 52422-4 0 4560
2 27844 098.7155 344.9528 0010006 352.2865 007.8153 14.20610483281559
SO-50
1 27607U 02058C 08339.05994077 .00000032 00000-0 27002-4 0 7573
2 27607 064.5591 257.7205 0083706 246.3755 112.8537 14.71399355319960
NO-44
1 26931U 01043C 08339.15776423 .00000114 00000-0 76964-4 0 428
2 26931 067.0511 206.7846 0006430 255.9841 104.0542 14.29541108374705
GO-32
1 25397U 98043D 08339.11262101 .00000095 00000-0 59972-4 0 7636
2 25397 098.3465 005.7245 0002211 097.7416 262.4024 14.23152451540384
IO-26
1 22826U 93061D 08339.48230719 -.00000010 00000-0 12684-4 0 8374
2 22826 098.4029 294.1606 0009695 111.4576 248.7650 14.29503183792192
AO-27
1 22825U 93061C 08339.66796267 .00000050 00000-0 36007-4 0 1212
2 22825 098.4119 293.5059 0009099 114.7703 245.4388 14.29253134792125
LO-19
1 20442U 90005G 08338.48502160 .00000020 00000-0 22599-4 0 4026
2 20442 098.2191 318.0756 0012574 033.8891 326.3107 14.32047189985301
AO-16
1 20439U 90005D 08339.44407590 -.00000010 00000-0 11589-4 0 4780
2 20439 098.2530 310.9986 0011602 033.9259 326.2672 14.31809764985287
NOAA-18
1 28654U 05018A 08339.50006938 -.00000225 00000-0 -10011-3 0 6885
2 28654 098.8878 278.4684 0014071 189.7174 170.3716 14.11212567182493
NOAA-17
1 27453U 02032A 08339.51426581 .00000013 00000-0 24160-4 0 2032
2 27453 098.5140 039.0245 0011230 335.9222 024.1441 14.24022324335041
NOAA-16
1 26536U 00055A 08339.49640418 -.00000280 00000-0 -12608-3 0 1962
2 26536 099.1706 332.5264 0011252 106.2579 253.9846 14.12502144422810
OKEAN-0
1 25860U 99039A 08339.01545103 .00000018 00000-0 99718-5 0 5403
2 25860 097.7655 322.2008 0001830 074.0415 286.0991 14.73547280504401
FENGYUN1
1 25730U 99025A 08339.77582882 .00001078 00000-0 63411-3 0 6421
2 25730 098.7409 309.9352 0023203 042.1344 318.2088 14.07887770492964
RESURS
1 25394U 98043A 08339.19985925 -.00000016 00000-0 10744-4 0 852
2 25394 098.3648 015.2237 0002446 061.4872 298.6553 14.24176148540642
NOAA-15
1 25338U 98030A 08339.52229575 -.00000014 00000-0 12679-4 0 7220
2 25338 098.5695 327.1778 0009682 265.4570 094.5525 14.24734977549055
NOAA-14
1 23455U 94089A 08339.54546483 .00000242 00000-0 15144-3 0 4150
2 23455 098.9315 051.7402 0009641 027.4778 332.6931 14.13754162718423
OKEAN-4
1 23317U 94066A 08339.80433002 .00000138 00000-0 14172-4 0 7645
2 23317 082.5381 155.8769 0020785 287.2223 072.6713 14.82655944763565
MET-2/21
1 22782U 93055A 08338.93104466 .00000085 00000-0 63635-4 0 3172
2 22782 082.5474 336.9102 0022492 170.3493 189.8118 13.83631757770603
MET-3/5
1 21655U 91056A 08338.22478007 .00000051 00000-0 10000-3 0 5235
2 21655 082.5523 344.9527 0013053 316.5554 043.4538 13.17017155831832
NOAA-12
1 21263U 91032A 08339.61898972 .00000023 00000-0 28809-4 0 9303
2 21263 098.7717 341.6032 0012628 355.3166 004.7893 14.25557014912672
NOAA-11
1 19531U 88089A 08339.31289928 -.00000036 00000-0 39440-5 0 4212
2 19531 098.7930 066.2278 0011150 307.0841 052.9353 14.14882518 41968
NOAA-10
1 16969U 86073A 08339.49468964 .00000077 00000-0 49534-4 0 3962
2 16969 098.7098 001.0236 0012917 047.7469 312.4789 14.27375073155737
RS-30
1 32953U 08025A 08338.92161709 .00000010 00000-0 00000 0 0 1749
2 32953 082.5037 018.0388 0017977 242.4805 117.4455 12.42998522 24134
CO-66
1 32791U 08021J 08339.27764948 .00000352 00000-0 51870-4 0 2115
2 32791 097.9725 038.5173 0015276 306.7333 053.2472 14.81354509 32554
DO-64
1 32789U 08021G 08338.85035763 .00000122 00000-0 22382-4 0 2280
2 32789 097.9735 038.1561 0014812 309.0133 050.9734 14.81547866 32520
AAUSAT2
1 32788U 08021F 08339.84759109 -.00000088 00000-0 -42790-5 0 2184
2 32788 097.9696 039.0876 0014628 308.6253 051.3578 14.81622111 32671
COMPASS
1 32787U 08021E 08339.72894612 .00000138 00000-0 24440-4 0 2184
2 32787 097.9691 038.9396 0015114 306.9281 053.0544 14.81508067 32656
CAPE1
1 31130U 07012P 08339.81763962 .00000041 00000-0 20250-4 0 4693
2 31130 098.0203 035.8602 0102984 166.4651 193.9343 14.52013486 86481
MAST
1 31126U 07012K 08339.07666883 .00000131 00000-0 40119-4 0 4753
2 31126 098.0187 036.5301 0094946 164.7341 195.6778 14.53462671 86695
FALCON
1 30776U 07006E 08338.89241876 .00000289 00000-0 24066-4 0 4528
2 30776 035.4334 204.1810 0001510 000.7136 359.3582 15.03117493 95695
CO-58
1 28895U 05043F 08339.11984776 .00000078 00000-0 25949-4 0 1833
2 28895 098.0804 228.9293 0016867 236.9227 123.0539 14.59720919165278
ISS
1 25544U 98067A 08339.75781152 .00007434 00000-0 56203-4 0 7939
2 25544 051.6394 222.1524 0006091 063.0491 297.1655 15.71694468575370
PO-34
1 25520U 98064B 08339.75967809 .00000333 00000-0 66130-5 0 1357
2 25520 028.4593 116.7575 0005060 342.2744 017.7683 15.17266283559097
HUBBLE
1 20580U 90037B 08339.29660488 .00000345 00000-0 13823-4 0 2761
2 20580 028.4709 293.6871 0003458 033.5749 326.5059 15.00434781820557
/EX
1
0
SB KEPS @ AMSAT $ORB08339.O
Orbital Elements 08339.OSCAR
HR AMSAT ORBITAL ELEMENTS FOR OSCAR SATELLITES
FROM WA5QGD FORT WORTH,TX December 4, 2008
Send Subscribe/unsubscribe to KEPS at
http://www.amsat.org/mailman/listinfo/keps
BID: ORB08339.O
TO ALL RADIO AMATEURS BT
Satellite: PO-63
Catalog number: 29712
Epoch time: 08339.70288781
Element set: 28
Inclination: 097.8559 deg
RA of node: 034.5146 deg
Eccentricity: 0.0013987
Arg of perigee: 183.6012 deg
Mean anomaly: 176.5087 deg
Mean motion: 14.80359985 rev/day
Decay rate: 5.83e-06 rev/day^2
Epoch rev: 10269
Checksum: 349
Satellite: VO-52
Catalog number: 28650
Epoch time: 08338.39264154
Element set: 95
Inclination: 097.7703 deg
RA of node: 040.1741 deg
Eccentricity: 0.0026373
Arg of perigee: 310.6228 deg
Mean anomaly: 049.2703 deg
Mean motion: 14.81526321 rev/day
Decay rate: -2.13e-06 rev/day^2
Epoch rev: 19365
Checksum: 290
Satellite: AO-40
Catalog number: 26609
Epoch time: 08338.30552782
Element set: 162
Inclination: 008.2080 deg
RA of node: 045.5674 deg
Eccentricity: 0.7938374
Arg of perigee: 151.2607 deg
Mean anomaly: 297.1135 deg
Mean motion: 01.25587123 rev/day
Decay rate: -1.16e-06 rev/day^2
Epoch rev: 3716
Checksum: 300
Satellite: SO-33
Catalog number: 25509
Epoch time: 08339.67248512
Element set: 338
Inclination: 031.4304 deg
RA of node: 072.3616 deg
Eccentricity: 0.0354196
Arg of perigee: 077.8019 deg
Mean anomaly: 286.2038 deg
Mean motion: 14.28233192 rev/day
Decay rate: 1.17e-06 rev/day^2
Epoch rev: 52800
Checksum: 297
Satellite: FO-29
Catalog number: 24278
Epoch time: 08339.73080535
Element set: 917
Inclination: 098.5770 deg
RA of node: 233.6109 deg
Eccentricity: 0.0351351
Arg of perigee: 133.9867 deg
Mean anomaly: 229.0816 deg
Mean motion: 13.52940622 rev/day
Decay rate: 3.5e-07 rev/day^2
Epoch rev: 60745
Checksum: 323
Satellite: RS-15
Catalog number: 23439
Epoch time: 08337.88273289
Element set: 163
Inclination: 064.8168 deg
RA of node: 222.2566 deg
Eccentricity: 0.0145726
Arg of perigee: 090.0177 deg
Mean anomaly: 271.7445 deg
Mean motion: 11.27552875 rev/day
Decay rate: -3.9e-07 rev/day^2
Epoch rev: 57398
Checksum: 341
Satellite: UO-11
Catalog number: 14781
Epoch time: 08339.05669844
Element set: 827
Inclination: 098.1342 deg
RA of node: 015.4499 deg
Eccentricity: 0.0008077
Arg of perigee: 245.7679 deg
Mean anomaly: 114.2673 deg
Mean motion: 14.79679764 rev/day
